Regional Weather Roundup
Issued by NWS Midland/Odessa, TX

Skip options and go directly to product.
Home | Oldest Version | Previous Version | Current Version | All | Text Only | Save Text | Print | Product List | Glossary On

Skip product version selection by date and time.   
406
ASUS44 KMAF 110401
RWRMAF
MIDLAND AREA WEATHER ROUNDUP
NATIONAL WEATHER SERVICE MIDLAND TX
1000 PM CST SAT DEC 10 2016

...IN SOUTHWEST TEXAS AND SOUTHEAST NEW MEXICO...

CITY           SKY/WX    TMP DP  RH WIND       PRES   REMARKS
ALPINE         CLOUDY    51  41  67 SW14      30.17F
ANDREWS        FAIR      44  39  84 S12       30.01F WCI  38
ARTESIA        CLOUDY    52  36  54 SW17      29.97R
BIG SPRING     CLEAR     44  39  85 S20       30.05S WCI  35
CARLSBAD       CLEAR     50  38  63 S7        29.97F
DRYDEN           N/A     43  41  93 E6        30.13F WCI  39
FORT STOCKTON  NOT AVBL
GUAD PASS      CLOUDY    47  39  74 SW23G32   30.10R WCI  39
HOBBS          CLOUDY    41  41 100 S9        30.00F WCI  35
MARFA          CLOUDY    33  31  92 N5        30.17S WCI  29
MIDLAND AIRPK  CLEAR     45  39  78 S12       30.03F WCI  40
MIDLAND INTL   CLEAR     44  38  79 S10       30.03F WCI  39
ODESSA         CLEAR     47  38  71 S14       30.03S
PECOS          CLOUDY    41  39  92 SW6       30.02F WCI  37
PRESIDIO       FAIR      47  40  78 NW6       30.11S
SEMINOLE       CLOUDY    42  39  88 S7        30.00F WCI  38
SNYDER         CLEAR     44  42  93 S14       30.03S WCI  37
WINK           CLOUDY    40  39  97 SE5       30.01F WCI  37
$$
...OTHER STATIONS IN TEXAS...

CITY           SKY/WX    TMP DP  RH WIND       PRES   REMARKS
ABILENE        CLOUDY    52  47  83 S24G35    30.04F
AMARILLO       CLOUDY    49  34  56 SW14      29.85S
AUSTIN         DRIZZLE   51  50  96 S5        30.21F FOG
BROWNSVILLE    CLOUDY    54  50  86 W6        30.22F
CORPUS CHRISTI CLOUDY    59  58  96 CALM      30.19F
DALLAS FTW     CLOUDY    48  33  56 S13       30.14F
DEL RIO        CLOUDY    46  44  93 E14       30.17F WCI  40
EL PASO        CLEAR     50  37  61 S7        30.08F
HOUSTON INT    CLOUDY    52  37  56 E12       30.26F
LUBBOCK        CLOUDY    48  40  73 S18       29.94F
SAN ANGELO     CLOUDY    52  48  86 S17G29    30.09F
SAN ANTONIO    DRZL/FOG  48  46  93 CALM      30.21F VSB 1/2
WACO           CLOUDY    50  42  74 S16       30.20F
WICHITA FALLS  NOT AVBL
$$
...OTHER LOCATIONS IN NEW MEXICO...

CITY           SKY/WX    TMP DP  RH WIND       PRES   REMARKS
ALAMAGORDO     NOT AVBL
ALBUQUERQUE    CLOUDY    38  29  70 S6        30.04S WCI  33
CANNON AFB     CLOUDY    44  39  80 W16       29.92F WCI  37
CLOVIS         CLOUDY    43  32  65 SW13      29.92R WCI  36
HOLLOMAN AFB   CLEAR     46  35  65 SE10      30.10F
ROSWELL        CLOUDY    32  27  81 CALM      29.96S
RUIDOSO        CLOUDY    41  23  48 CALM      30.09F
SANTA FE       CLOUDY    38  26  62 VRB3      30.03S
TRUTH OR CONSE CLEAR     40  29  64 CALM      30.06S
TUCUMCARI      CLOUDY    51  29  42 SW21G26   29.83S
$$

  • National Weather Service
  • Southern Region Headquarters
  • 819 Taylor Street, Room 10A06
  • Fort Worth, TX 76102
  • Page Author: NWS Fort Worth
  • Web Master: SR-SRH.Webmaster@noaa.gov
  •  
  • Page last modified: 30-Sep-2016 6:36 PM UTC
USA.gov is the U.S. government's official web portal to all federal, state and local government web resources and services.